Weather in Suez

Egypt     29°57′24″N   32°30′03″E
temp.,
°C
wind,
m/s
gust,
m/s
humid.,
%
clouds,
%
prec.,
mm/h
press.,
hPa
HPBL,
m
11 april, sun
sun1123:00+11nw46521 0.0 1020142
02:00+10w34570 0.0 1020103
05:00+9w33641 0.0 102068
08:00+13wnw35480 0.0 1021731
11:00+18nw34330 0.0 10211488
14:00+21n35264 0.0 10181922
17:00+20nne88300 0.0 10181108
20:00+15n711520 0.0 1021349
12 april, mon
mon1223:00+13nnw46590 0.0 1021123
02:00+11nw44620 0.0 102164
05:00+10nw34680 0.0 102144
08:00+13nnw34560 0.0 1021598
11:00+18n55350 0.0 10201204
14:00+21n56260 0.0 10181378
17:00+21nne66280 0.0 10171350
20:00+15nnw58500 0.0 1020167
13 april, tue
tue1323:00+13nnw45570 0.0 102072
02:00+12nnw45640 0.0 101961
05:00+11n44690 0.0 101952
08:00+15nne35470 0.0 1020470
11:00+21nne55250 0.0 10191043
14:00+24n76204 0.0 10171325
17:00+22n88274 0.0 10171113
20:00+17n6948100 0.0 1019156
14 april, wed
wed1423:00+15nnw4556100 0.0 101863
02:00+13nnw44610 0.0 101847
05:00+13nnw44620 0.0 101840
08:00+17nnw44400 0.0 1019344
11:00+24nne34200 0.0 1017948
14:00+28n55130 0.0 10151257
17:00+26n871814 0.0 1014959
20:00+19nnw69466 0.0 1016130
15 april, thu
thu1523:00+17nw6754100 0.0 101691
02:00+17nw5550100 0.0 101561
05:00+17nnw4545100 0.0 101572
08:00+21nnw44285 0.0 1015288
11:00+28n44141 0.0 1015867
14:00+32n65110 0.0 10131358
17:00+29n98150 0.0 1012919
20:00+20nnw79380 0.0 1015127